Terminal Aerodrome Forecast
Issued by NWS

Home | Current Version | Previous Version | Text Only | Print | Product List | Glossary On
Versions: 1 2 3 4 5 6 7 8 9 10 11 12 13 14 15 16 17 18 19 20 21 22 23 24 25 26 27 28 29 30 31 32 33 34 35 36 37 38
000
FTAK31 PANC 300900 AAC
TAFAVD
TAF AMD
PAVD 300900Z 3009/3106 VRB05KT P6SM OVC025
     FM301500 VRB03KT P6SM FEW020 BKN070
     FM302100 26010KT P6SM FEW050 BKN100
      AMD LTD TO CLD VIS AND WIND=

USA.gov is the U.S. government's official web portal to all federal, state and local government web resources and services.